Regional Weather Roundup
Issued by NWS Bismarck, ND

Home | Current Version | Previous Version | Text Only | Print | Product List | Glossary On
Versions: 1 2 3 4 5 6 7 8 9 10 11 12 13 14 15 16 17 18 19 20 21 22 23 24 25 26 27 28 29 30 31 32 33 34 35 36 37 38 39 40 41 42 43 44 45 46 47 48 49 50
000
ASUS43 KBIS 251510
RWRBIS

NWR BROADCAST TEXT
NATIONAL WEATHER SERVICE BISMARCK ND
1000 AM CDT FRI JUL 25 2014

NOTE: "FAIR" INDICATES FEW OR NO CLOUDS BELOW 12,000 FEET WITH NO
SIGNIFICANT WEATHER AND/OR OBSTRUCTIONS TO VISIBILITY.


CITY           SKY/WX    TMP DP  RH WIND       PRES   REMARKS
WILLISTON      SUNNY     66  48  52 W6        29.88S
MINOT          SUNNY     68  51  54 W8        29.83S
MINOT AFB      SUNNY     68  56  65 W13       29.83R
BISMARCK       SUNNY     74  48  39 NW17G26   29.85R
DICKINSON      MOSUNNY   67  49  52 NW15      29.92S
GARRISON         N/A     68  53  58 NW12      29.87R
HETTINGER ARPT SUNNY     69  44  40 NW12      29.97R
JAMESTOWN      MOSUNNY   71  65  81 W7        29.78F
CARRINGTON     FAIR      70  70 100 NW15      29.81R
CROSBY         FAIR      63  52  67 W15G21    29.84F
HARVEY         FAIR      68  55  64 NW17      29.82R
HAZEN          FAIR      68  50  52 NW9       29.88F
LINTON         CLOUDY    72  68  88 NW12      29.84R
MANDAN         FAIR      72  48  43 N18G25    29.87R
RUGBY          FAIR      66  57  72 NW16      29.81R
STANLEY        FAIR      64  54  68 W14       29.87S
TIOGA          FAIR      63  57  82 W15       29.90F
WATFORD CITY   FAIR      64  50  59 W7        29.88S
$$

CITY           SKY/WX    TMP DP  RH WIND       PRES   REMARKS
GRAND FORKS    CLOUDY    71  64  78 W6        29.76R
GRAND FORKS AF CLOUDY    71  67  87 NW6       29.77S
DEVILS LAKE    CLOUDY    72  64  78 NW12      29.76S
FARGO          MOSUNNY   73  65  75 SW10      29.76R
CANDO          PTSUNNY   70  63  78 NW17      29.78S
CAVALIER       PTSUNNY   72  64  78 CALM      29.73F
GRAFTON        FAIR      73  64  73 W8        29.74F
GWINNER        PTSUNNY   70  70 100 S5        29.76F
LANGDON        PTSUNNY   73  66  78 W8        29.76S
ROLLA          FAIR      68  52  56 NW13G21   29.81R
WALHALLA         N/A     75  70  83 W7          N/A
$$

CITY           SKY/WX    TMP DP  RH WIND       PRES   REMARKS
ABERDEEN       MOSUNNY   73  67  81 N10       29.75S
MOBRIDGE       MOSUNNY   72  66  81 NW15      29.81S
BUFFALO          N/A     69  42  37 N12       29.92F
RAPID CITY     SUNNY     70  41  34 N14       30.01R
GLASGOW        SUNNY     70  37  29 W18       29.86F
SIDNEY         SUNNY     70  41  35 SW8G16    29.91S
WOLF POINT     SUNNY     66  46  48 SW8       29.89S
GLENDIVE       SUNNY     64  52  63 SE6       29.95F
MILES CITY     SUNNY     67  51  56 S8        29.95F
BAKER          SUNNY     66  47  50 VRB5      29.99S
$$

CITY           SKY/WX    TMP DP  RH WIND       PRES   REMARKS
BILLINGS       SUNNY     64  40  41 S9        30.00F
GREAT FALLS    SUNNY     63  37  38 SW29G35   29.94R
REGINA         SUNNY     61  52  72 SW15      29.73F
ESTEVAN        SUNNY     64  52  63 W12G18    29.82F
$$



USA.gov is the U.S. government's official web portal to all federal, state and local government web resources and services.